Simultaneous Nadir Overpasses (SNOs) Predictions

Prediction of SNOs between GOES-16 and NOAA-19 Satellite Orbit:

Table of predicted SNOs for the next 14.0 days since TLE Epoch: 7/2/2022
Index Date Time (GOES-16) GOES-16 Lat,Lon NOAA-19 Lat,Lon Distance(km) Time Diff (sec)
1 07/02/2022 12:59:34 0.02, -75.21 0.58, -77.69 282.80 80
2 07/03/2022 12:50:23 0.02, -75.22 -0.06, -74.80 47.76 80
3 07/04/2022 12:38:32 0.02, -75.23 -0.77, -71.91 378.43 80
4 07/07/2022 00:56:35 -0.01, -75.24 -0.36, -76.82 180.43 80
5 07/08/2022 00:47:24 -0.02, -75.25 0.28, -73.93 150.78 80
6 07/09/2022 00:35:33 -0.02, -75.26 0.97, -71.04 481.99 80
7 07/10/2022 13:07:49 0.02, -75.29 0.85, -78.77 397.50 80
8 07/11/2022 12:55:59 0.01, -75.30 0.14, -75.89 66.48 80
9 07/12/2022 12:41:28 0.01, -75.31 -0.51, -72.99 264.61 80
10 07/15/2022 01:04:51 -0.00, -75.34 -0.60, -77.91 293.68 80
11 07/16/2022 00:50:21 -0.00, -75.35 0.10, -75.03 38.21 80
